Stations météo

réclame
Mon MeteoGroup
List/Sylt, Allemagne (10020): Température de l'air & dewpoint: 12.06.2018 13:00:00 - 18.06.2018 13:00:00 (CEST)List/Sylt, Allemagne (10020): Température de l'air 5cm & Température de l'air -5cm: 12.06.2018 13:00:00 - 18.06.2018 13:00:00 (CEST)List/Sylt, Allemagne (10020): Température de l'air -20cm: 12.06.2018 13:00:00 - 18.06.2018 13:00:00 (CEST)List/Sylt, Allemagne (10020): Vitesse du vent & gusts: 12.06.2018 13:00:00 - 18.06.2018 13:00:00 (CEST)List/Sylt, Allemagne (10020): Direction du vent: 12.06.2018 13:00:00 - 18.06.2018 13:00:00 (CEST)List/Sylt, Allemagne (10020): reduced air pressure: 12.06.2018 13:00:00 - 18.06.2018 13:00:00 (CEST)List/Sylt, Allemagne (10020): visibility: 12.06.2018 13:00:00 - 18.06.2018 13:00:00 (CEST)List/Sylt, Allemagne (10020): Ensoleillement: 12.06.2018 13:00:00 - 18.06.2018 13:00:00 (CEST)List/Sylt, Allemagne (10020): Quantités de précipitations: 12.06.2018 13:00:00 - 18.06.2018 13:00:00 (CEST)
Date & Time tt [°C] td [°C] tt 5cm [°C] tt -5cm [°C] tt -20cm [°C] ff [km/h] ff [knt] fx [km/h] fx [knt] dd ppp [hPa] vv [km] sd [min] rr [mm]
18.06.2018 13:00:00 15,3 13,8 15,2 17,1 16,5 39 21 53 28 SSW 1015,5 5 0 0,0
18.06.2018 12:00:00 16,0 13,3 17,9 16,9 16,4 39 21 54 29 SSW 1015,6 10 0 0,0
18.06.2018 11:00:00 15,8 12,7 17,2 16,8 16,4 40 22 54 29 SSW 1015,7 12 0 0,0
18.06.2018 10:00:00 16,1 12,7 18,1 16,3 16,5 34 18 45 24 SSW 1015,8 10 2 0,0
18.06.2018 09:00:00 15,7 13,0 17,3 15,9 16,6 29 16 46 25 SSW 1015,6 20 0 0,0
18.06.2018 08:00:00 15,3 12,9 15,6 15,7 16,7 33 18 45 24 SSW 1015,5 13 0 0,0
18.06.2018 07:00:00 15,3 12,4 15,1 15,6 16,8 29 16 40 22 SSW 1015,7 17 0 0,0
18.06.2018 06:00:00 14,7 11,6 14,1 15,5 16,9 22 12 31 17 SSW 1016,1 29 22 0,0
18.06.2018 05:00:00 14,1 12,0 12,4 15,7 17,1 22 12 34 18 SW 1016,1 21 0 0,0
18.06.2018 04:00:00 14,1 11,8 12,5 15,9 17,3 21 12 29 16 SW 1016,1 18 0 0,0
18.06.2018 03:00:00 13,6 11,0 12,2 16,1 17,4 19 11 28 15 SW 1016,2 20 0 0,0
18.06.2018 02:00:00 13,6 11,0 12,1 16,4 17,6 18 10 28 15 WSW 1016,7 21 0 0,0
18.06.2018 01:00:00 13,5 10,8 12,1 16,8 17,8 16 9 36 19 WSW 1016,5 20 0 0,0
18.06.2018 00:00:00 14,2 11,0 13,4 17,2 17,9 24 13 34 19 WSW 1016,3 20 0 0,0
17.06.2018 23:00:00 14,1 11,0 13,0 17,7 18,0 23 12 36 20 WSW 1016,2 21 0 0,0
17.06.2018 22:00:00 14,4 10,9 13,4 18,3 18,1 24 13 36 19 WSW 1016,0 20 12 0,0
17.06.2018 21:00:00 14,8 11,0 14,8 19,0 18,1 27 14 43 23 WSW 1015,8 17 5 0,0
17.06.2018 20:00:00 15,0 11,1 15,1 19,7 18,1 29 16 47 26 WSW 1015,5 17 17 0,0
17.06.2018 19:00:00 15,7 11,4 17,9 20,6 18,0 30 16 47 26 WSW 1015,1 6 56 0,0
17.06.2018 18:00:00 15,6 11,0 17,6 21,1 17,8 31 17 48 26 WSW 1014,8 12 50 0,0
17.06.2018 17:00:00 16,2 11,3 19,7 21,4 17,5 31 17 46 25 WSW 1014,7 4,3 60 0,0
17.06.2018 16:00:00 16,9 11,3 21,7 21,2 17,2 31 17 49 26 WSW 1014,4 3,6 59 0,0
17.06.2018 15:00:00 17,1 11,5 21,3 20,7 17,0 34 18 49 27 WSW 1014,0 4,3 60 0,0
17.06.2018 14:00:00 16,6 11,3 21,3 19,8 16,8 33 18 49 26 WSW 1013,4 4,4 47 0,0
17.06.2018 13:00:00 16,4 11,5 19,9 18,8 16,7 32 18 47 26 WSW 1012,9 9 25 0,0
17.06.2018 12:00:00 15,9 12,2 18,1 18,1 16,6 33 18 45 25 WSW 1012,5 6 21 0,0
17.06.2018 11:00:00 15,2 12,2 17,6 16,9 16,6 30 16 41 22 WSW 1012,0 8 43 1,2
17.06.2018 10:00:00 12,7 11,0 12,0 16,6 16,6 27 15 54 29 WSW 1011,8 4,3 1 0,8
17.06.2018 09:00:00 15,7 13,1 16,8 16,3 16,7 34 18 50 27 SW 1011,0 11 14 0,0
17.06.2018 08:00:00 15,6 12,6 16,4 15,9 16,8 35 19 48 26 SSW 1010,9 24 26 0,0
17.06.2018 07:00:00 15,2 11,9 15,4 15,7 16,9 23 13 35 19 SSW 1011,0 13 60 0,0
17.06.2018 06:00:00 14,9 12,0 13,1 15,8 17,1 21 11 27 14 S 1011,4 22 19 0,0
17.06.2018 05:00:00 14,2 11,9 12,2 16,1 17,2 15 8 24 13 SW 1011,7 15 0 0,0
17.06.2018 04:00:00 14,5 12,9 12,9 16,3 17,3 16 9 29 15 SSW 1011,9 10 0 0,0
17.06.2018 03:00:00 14,5 13,0 13,5 16,6 17,4 24 13 32 17 SSW 1012,2 13 0 0,0
17.06.2018 02:00:00 14,8 13,0 13,7 16,9 17,5 17 9 27 15 SW 1012,4 10 0 0,0
17.06.2018 01:00:00 14,7 12,9 13,4 17,3 17,6 15 8 25 14 SW 1012,4 10 0 0,0
17.06.2018 00:00:00 15,1 12,3 14,0 17,7 17,7 15 8 26 14 SW 1012,4 15 0 0,0
16.06.2018 23:00:00 16,1 12,3 15,0 18,2 17,7 16 9 23 12 SSW 1012,6 18 0 0,0
16.06.2018 22:00:00 16,1 12,5 15,1 18,8 17,7 15 8 22 12 SW 1012,6 19 13 0,0
16.06.2018 21:00:00 16,4 12,7 16,1 19,5 17,6 18 10 26 14 SW 1012,7 11 2 0,0
16.06.2018 20:00:00 17,4 14,3 19,3 19,9 17,4 12 7 29 16 SW 1012,5 9 51 0,0
16.06.2018 19:00:00 18,6 15,0 22,3 20,0 17,3 14 8 18 10 S 1012,5 15 22 0,0
16.06.2018 18:00:00 17,9 15,0 18,9 19,6 17,2 8 5 13 7 ESE 1012,7 10 0 0,0
16.06.2018 17:00:00 18,1 14,7 19,2 19,0 17,1 9 5 12 7 E 1013,0 10 0 0,0
16.06.2018 16:00:00 16,9 14,5 16,9 18,6 17,0 5 3 13 7 SE 1013,6 8 0 0,5
16.06.2018 15:00:00 17,4 15,0 18,8 18,1 17,0 12 6 16 9 E 1013,6 10 0 0,0
16.06.2018 14:00:00 16,8 14,5 17,6 17,7 16,9 12 6 22 12 ESE 1014,0 11 0 1,8
16.06.2018 13:00:00 17,8 13,2 18,6 17,7 16,9 11 6 19 10 SE 1014,2 17 0 0,0
16.06.2018 12:00:00 17,7 12,3 18,9 17,3 16,9 13 7 22 12 SE 1014,4 28 0 0,0
16.06.2018 11:00:00 16,8 11,1 18,1 17,1 16,9 16 8 21 11 ESE 1014,7 30 0 0,0
16.06.2018 10:00:00 16,4 10,9 17,7 16,8 17,0 13 7 23 12 E 1015,0 33 0 0,0
16.06.2018 09:00:00 16,0 10,8 16,8 16,5 17,1 17 9 23 13 E 1015,1 24 0 0,0
16.06.2018 08:00:00 15,6 10,7 16,3 16,2 17,2 16 9 22 12 E 1015,3 24 0 0,0
16.06.2018 07:00:00 15,5 10,6 15,4 16,1 17,3 15 8 20 11 E 1015,6 30 0 0,0
16.06.2018 06:00:00 15,2 11,2 14,3 16,1 17,4 10 6 15 8 ENE 1015,9 31 0 0,0
16.06.2018 05:00:00 14,8 9,6 13,5 16,2 17,6 11 6 14 8 NE 1016,5 35 0 0,0
16.06.2018 04:00:00 15,3 9,9 13,4 16,4 17,8 6 3 14 7 ENE 1016,9 35 0 0,0
16.06.2018 03:00:00 15,3 9,5 13,1 16,7 17,9 11 6 16 9 ESE 1016,9 34 0 0,0
16.06.2018 02:00:00 15,9 8,0 13,0 16,9 18,1 2 1 6 4 WNW 1017,1 43 0 0,0
16.06.2018 01:00:00 15,2 9,4 9,9 17,3 18,3 6 3 9 5 SSW 1017,1 42 0 0,0
16.06.2018 00:00:00 15,9 8,0 11,1 17,9 18,4 7 4 11 6 S 1016,9 46 0 0,0
15.06.2018 23:00:00 16,0 8,4 12,5 18,6 18,5 8 5 12 6 S 1017,0 45 0 0,0
15.06.2018 22:00:00 16,3 7,7 13,6 19,4 18,6 8 4 11 6 S 1017,1 45 0 0,0
15.06.2018 21:00:00 16,4 8,6 15,7 20,3 18,5 4 2 12 7 SW 1017,0 34 35 0,0
15.06.2018 20:00:00 17,2 8,1 18,7 21,2 18,4 9 5 17 9 W 1017,2 29 60 0,0
15.06.2018 19:00:00 18,4 6,5 23,7 22,0 18,3 11 6 24 13 WSW 1017,2 13 60 0,0
15.06.2018 18:00:00 18,5 5,6 24,0 22,5 18,0 17 9 34 18 WSW 1017,5 7 60 0,0
15.06.2018 17:00:00 17,7 8,0 24,5 22,7 17,7 21 11 32 17 SW 1017,7 10 60 0,0
15.06.2018 16:00:00 18,8 9,8 26,5 22,6 17,3 23 12 35 19 WSW 1017,8 7 60 0,0
15.06.2018 15:00:00 17,9 8,2 24,2 22,1 17,0 23 13 37 20 SW 1017,4 4,9 60 0,0
15.06.2018 14:00:00 18,2 9,4 24,5 21,3 16,7 24 13 42 23 SW 1017,2 4,9 60 0,0
15.06.2018 13:00:00 18,3 6,0 23,6 20,4 16,4 29 15 38 21 SW 1017,0 4,3 58 0,0
15.06.2018 12:00:00 17,6 8,5 24,1 19,2 16,2 21 12 29 16 SW 1016,8 11 60 0,0
15.06.2018 11:00:00 17,5 10,9 23,3 17,9 16,1 17 9 26 14 WSW 1016,7 20 60 0,0
15.06.2018 10:00:00 16,8 10,4 21,9 16,6 16,1 16 9 23 12 WSW 1016,3 15 60 0,0
15.06.2018 09:00:00 15,6 10,0 18,7 15,6 16,2 17 9 24 13 W 1016,1 19 60 0,0
15.06.2018 08:00:00 14,9 11,0 16,0 14,9 16,3 19 10 26 14 W 1015,6 14 60 0,0
15.06.2018 07:00:00 14,5 11,0 14,1 14,6 16,4 19 10 26 14 W 1015,1 20 60 0,0
15.06.2018 06:00:00 13,6 10,3 11,4 14,7 16,6 17 9 27 15 W 1014,9 23 22 0,0
15.06.2018 05:00:00 13,4 9,1 11,1 14,9 16,7 20 11 30 16 W 1014,1 24 0 0,0
15.06.2018 04:00:00 13,4 9,1 10,9 15,2 16,9 22 12 32 17 W 1013,7 25 0 0,0
15.06.2018 03:00:00 13,5 9,6 11,1 15,5 17,0 22 12 34 19 W 1013,7 23 0 0,0
15.06.2018 02:00:00 13,6 9,6 11,2 15,8 17,2 24 13 36 19 W 1013,4 21 0 0,0
15.06.2018 01:00:00 13,7 10,0 11,3 16,2 17,3 24 13 39 21 W 1013,0 24 0 0,0
15.06.2018 00:00:00 14,0 11,7 12,2 16,7 17,4 22 12 42 23 W 1012,5 15 0 0,0
14.06.2018 23:00:00 14,4 13,0 13,2 17,1 17,5 27 14 48 26 WSW 1011,8 9 0 0,0
14.06.2018 22:00:00 14,7 13,2 13,6 17,5 17,5 34 18 51 28 WSW 1011,2 8 20 0,0
14.06.2018 21:00:00 14,9 13,7 14,2 17,8 17,6 34 19 52 28 WSW 1010,6 10 0 0,0
14.06.2018 20:00:00 14,7 14,1 14,5 18,1 17,6 35 19 66 36 SW 1009,9 10 0 0,6
14.06.2018 19:00:00 14,7 13,9 14,4 18,5 17,6 47 26 71 38 SW 1009,7 1,2 0 0,6
14.06.2018 18:00:00 15,3 13,0 14,2 19,1 17,5 45 25 61 33 SSW 1009,6 11 0 0,6
14.06.2018 17:00:00 14,9 12,6 13,8 19,7 17,3 43 23 69 38 SSW 1009,5 6 0 0,9
14.06.2018 16:00:00 15,9 12,2 14,2 20,4 17,1 44 24 63 34 SW 1009,9 7 0 0,1
14.06.2018 15:00:00 18,5 10,9 20,6 20,8 16,9 45 24 66 36 S 1009,4 8 21 0,0
14.06.2018 14:00:00 18,7 11,4 24,0 20,2 16,7 46 25 62 33 S 1009,6 3,0 34 0,0
14.06.2018 13:00:00 18,4 10,6 23,4 19,4 16,5 47 25 66 36 SSW 1009,9 3,6 51 0,0
14.06.2018 12:00:00 18,4 10,6 23,9 18,3 16,4 44 24 63 34 SSW 1010,1 2,4 60 0,0
14.06.2018 11:00:00 17,1 10,1 22,1 17,3 16,4 44 24 64 35 SSW 1010,3 3,1 60 0,0
14.06.2018 10:00:00 16,6 10,9 20,3 16,6 16,4 42 23 56 31 SSW 1010,4 3,5 40 0,0
14.06.2018 09:00:00 15,9 10,7 17,9 16,2 16,4 42 23 57 31 SSW 1010,3 4,8 22 0,0
14.06.2018 08:00:00 15,3 11,0 16,0 15,9 16,5 36 20 51 28 SSW 1010,8 18 0 0,0
14.06.2018 07:00:00 14,9 11,5 14,9 15,8 16,6 32 18 44 24 SSW 1011,2 40 0 0,0
14.06.2018 06:00:00 14,8 10,9 14,2 15,8 16,6 30 16 45 24 SSW 1011,4 45 0 0,0
14.06.2018 05:00:00 14,4 11,1 13,4 15,9 16,7 28 15 41 22 SSW 1012,0 36 0 0,0
14.06.2018 04:00:00 14,0 11,4 13,1 16,1 16,8 27 15 39 21 SW 1012,5 32 0 0,0
14.06.2018 03:00:00 14,1 11,4 13,4 16,2 16,9 29 16 42 23 SW 1013,0 28 0 0,0
14.06.2018 02:00:00 14,0 10,2 13,8 16,3 17,0 25 14 34 18 SSW 1013,3 42 0 0,0
14.06.2018 01:00:00 13,3 8,9 13,0 16,4 17,1 18 10 28 15 SW 1013,6 55 0 0,0
14.06.2018 00:00:00 12,7 8,1 12,1 16,7 17,1 14 8 26 14 W 1013,8 55 0 0,0
13.06.2018 23:00:00 12,6 7,9 11,5 17,2 17,2 18 10 32 17 W 1014,2 42 0 0,0
13.06.2018 22:00:00 13,0 7,3 12,7 17,7 17,2 26 14 33 18 W 1014,0 56 13 0,0
13.06.2018 21:00:00 13,3 7,4 13,4 18,2 17,1 24 13 37 20 W 1013,9 47 23 0,0
13.06.2018 20:00:00 13,3 7,7 13,7 18,7 17,0 29 16 45 24 WNW 1013,6 37 0 0,0
13.06.2018 19:00:00 13,9 8,8 15,3 19,2 16,9 31 17 44 24 WNW 1013,6 22 3 0,0
13.06.2018 18:00:00 15,0 9,1 18,7 19,5 16,7 32 17 49 26 NW 1013,3 9 47 0,0
13.06.2018 17:00:00 15,3 8,9 20,1 19,2 16,5 39 21 49 26 NW 1013,0 2,7 57 0,0
13.06.2018 16:00:00 15,5 9,9 19,6 18,7 16,3 36 19 49 26 NW 1012,7 7 4 0,0
13.06.2018 15:00:00 15,4 9,4 20,2 18,0 16,2 37 20 49 26 WNW 1012,9 4,6 25 0,0
13.06.2018 14:00:00 15,2 9,2 20,1 17,0 16,1 32 18 45 24 WNW 1012,9 8 7 0,0
13.06.2018 13:00:00 14,4 9,2 16,9 16,3 16,1 34 19 44 24 NW 1012,7 10 0 0,0
13.06.2018 12:00:00 14,3 9,4 16,6 15,9 16,1 34 18 51 28 NW 1012,4 8 0 0,0
13.06.2018 11:00:00 13,9 8,6 15,2 15,7 16,1 37 20 47 25 NW 1012,4 15 0 0,0
13.06.2018 10:00:00 13,9 8,5 15,5 15,4 16,1 36 19 51 28 NW 1012,0 11 5 0,0
13.06.2018 09:00:00 14,2 10,0 16,4 15,0 16,2 35 19 53 29 NW 1011,6 7 42 0,0
13.06.2018 08:00:00 14,1 7,7 15,3 14,8 16,2 42 23 59 32 NNW 1011,3 8 25 0,0
13.06.2018 07:00:00 13,3 8,0 13,7 14,8 16,3 46 25 58 31 NW 1011,1 19 6 0,0
13.06.2018 06:00:00 13,0 8,0 12,5 14,9 16,4 43 23 61 33 NW 1011,0 17 0 0,0
13.06.2018 05:00:00 13,1 8,1 12,7 15,0 16,5 42 23 56 30 NW 1010,8 55 0 0,0
13.06.2018 04:00:00 13,2 8,5 13,0 15,1 16,6 42 23 55 30 NW 1010,9 33 0 0,0
13.06.2018 03:00:00 13,3 8,0 13,2 15,2 16,7 41 22 55 30 NW 1011,0 29 0 0,0
13.06.2018 02:00:00 13,1 8,1 12,9 15,4 16,8 43 23 54 29 NW 1011,0 37 0 0,0
13.06.2018 01:00:00 13,1 8,1 12,9 15,6 16,9 38 20 49 27 NW 1011,2 39 0 0,0
13.06.2018 00:00:00 13,1 9,0 13,0 15,8 17,0 37 20 50 27 NW 1011,0 30 0 0,0
12.06.2018 23:00:00 13,1 8,9 13,0 16,0 17,1 38 20 50 27 NW 1010,9 35 0 0,0
12.06.2018 22:00:00 13,2 8,9 13,1 16,3 17,1 36 20 48 26 NW 1010,8 29 0 0,0
12.06.2018 21:00:00 13,1 9,5 13,1 16,6 17,2 35 19 46 25 NW 1010,6 22 0 0,0
12.06.2018 20:00:00 13,3 9,8 13,5 16,9 17,2 33 18 47 26 NW 1010,6 26 0 0,0
12.06.2018 19:00:00 13,5 9,7 14,1 17,2 17,2 33 18 46 25 NW 1010,7 21 0 0,0
12.06.2018 18:00:00 13,6 9,2 14,5 17,4 17,1 38 20 47 25 NW 1010,8 13 0 0,0
12.06.2018 17:00:00 13,4 9,5 14,2 17,6 17,1 35 19 48 26 NW 1011,0 14 0 0,0
12.06.2018 16:00:00 14,0 10,0 16,0 17,7 17,0 33 18 47 25 WNW 1011,0 9 0 0,0
12.06.2018 15:00:00 14,2 10,4 16,1 17,8 17,0 31 17 46 25 WNW 1011,0 15 1 0,0
12.06.2018 14:00:00 14,8 10,4 19,2 17,3 16,9 32 17 47 26 WNW 1010,8 8 0 0,0
12.06.2018 13:00:00 14,4 9,7 17,5 16,9 16,9 35 19 43 23 NW 1010,7 12 0 0,0

tt = Température de l'air
td = dewpoint
tt 5cm = Température de l'air 5cm
tt -5cm = Température de l'air -5cm
tt -20cm = Température de l'air -20cm
ff = Vitesse du vent
fx = gusts
dd = Direction du vent
ppp = reduced air pressure
vv = visibility
sd = Ensoleillement
rr = Quantités de précipitations

stations d'obs. à proximité